Tracking 20942 objects as of 11-Jul-2020
HD Live streaming from Space Station
objects crossing your sky now

THORAD DELTA 1 DEB

Track THORAD DELTA 1 DEB now!
10-day predictions


NORAD ID: 42625
Int'l Code: 1974-089GS
Perigee: 1,494.5 km
Apogee: 1,503.5 km
Inclination: 101.8 °
Period: 115.8 minutes
Semi major axis: 7869 km
RCS: Unknown
Launch date: November 15, 1974
Source: United States (US)
Launch site: AIR FORCE WESTERN TEST RANGE (AFWTR)

Note: This is SATELLITE DEBRIS
aabbcc
Your satellite tracking list
Your tracking list is empty




NASA's NSSDC Master Catalog

Two Line Element Set (TLE):
1 42625U 74089GS  20191.87626029  .00000090  00000-0  95614-3 0  9997
2 42625 101.7643 169.7518 0005703 357.7867  34.7023 12.43493545278105
Source of the keplerian elements: AFSPC